Precipitable_Water
1.77 1.84 1.96 1.99 2.05 2.09 2.10 2.11 2.17 2.15 2.15 2.18 2.19 2.14 2.09 2.07 2.09 2.13 2.14 2.13 2.08 2.01 1.98 2.03 2.05 2.03 1.99 1.97 1.97 1.94 1.95 1.93 1.92 1.87 1.91 1.86 1.78 1.75 1.70 1.67 1.62 1.55 1.52 1.49 1.47 1.49 1.49 1.47 1.45 1.43 1.43 1.46 1.46 1.47 1.43 1.45 1.45 1.45 1.52 1.57 1.60 1.59 1.63 1.64 1.65 1.69 1.72 1.78 1.81 1.81 1.81 1.81 1.83 1.85 1.87 1.87 1.86 1.85 1.84 1.83 1.75 1.77 1.90 1.88 1.86
1.70 1.88 1.95 1.98 2.01 2.04 2.08 2.08 2.13 2.17 2.16 2.15 2.16 2.14 2.10 2.08 2.10 2.11 2.12 2.12 2.11 2.05 1.98 2.02 2.04 2.00 1.96 1.94 1.95 1.97 1.94 1.93 1.91 1.79 1.74 1.69 1.63 1.61 1.62 1.62 1.63 1.63 1.64 1.64 1.67 1.69 1.67 1.64 1.63 1.63 1.62 1.62 1.63 1.64 1.61 1.57 1.56 1.52 1.53 1.56 1.60 1.60 1.68 1.70 1.70 1.73 1.76 1.78 1.81 1.81 1.82 1.84 1.87 1.86 1.85 1.85 1.84 1.84 1.82 1.77 1.79 1.92 2.11 1.88 1.86
1.75 1.85 1.93 1.95 1.98 1.98 2.02 2.06 2.08 2.14 2.18 2.18 2.14 2.12 2.11 2.12 2.10 2.07 2.09 2.06 2.03 2.02 2.00 2.00 2.01 1.96 1.92 1.92 1.97 1.97 1.91 1.86 1.72 1.64 1.60 1.59 1.63 1.67 1.71 1.75 1.76 1.77 1.76 1.77 1.78 1.77 1.78 1.76 1.73 1.72 1.71 1.71 1.74 1.79 1.78 1.71 1.68 1.63 1.62 1.64 1.64 1.71 1.77 1.80 1.79 1.78 1.79 1.79 1.80 1.80 1.84 1.85 1.86 1.85 1.84 1.83 1.82 1.81 1.76 1.73 1.77 1.83 1.87 1.87 1.89
1.65 1.80 1.91 1.91 1.95 1.95 1.96 2.01 2.04 2.08 2.16 2.20 2.17 2.14 2.11 2.09 2.09 2.08 2.06 2.03 1.98 1.98 2.00 1.98 1.96 1.93 1.91 1.96 2.02 1.94 1.80 1.70 1.67 1.65 1.64 1.66 1.69 1.74 1.79 1.86 1.88 1.89 1.89 1.87 1.86 1.84 1.83 1.84 1.81 1.78 1.77 1.77 1.80 1.84 1.87 1.84 1.80 1.77 1.71 1.77 1.76 1.79 1.83 1.84 1.82 1.79 1.79 1.82 1.83 1.82 1.92 1.98 1.90 1.81 1.80 1.80 1.79 1.76 1.70 1.69 1.76 1.86 1.84 1.84 1.88
1.67 1.77 1.88 1.88 1.93 1.93 1.95 1.99 2.03 2.05 2.11 2.15 2.16 2.15 2.11 2.07 2.06 2.06 2.05 2.02 1.97 1.96 1.96 1.94 1.91 1.91 1.94 1.99 1.98 1.85 1.69 1.69 1.69 1.66 1.69 1.75 1.81 1.86 1.91 1.92 1.91 1.89 1.88 1.88 1.86 1.88 1.88 1.88 1.88 1.85 1.80 1.82 1.84 1.86 1.92 1.94 1.94 1.89 1.85 1.79 1.82 1.84 1.87 1.88 1.86 1.84 1.81 1.85 1.88 1.94 2.03 2.00 1.98 1.82 1.79 1.79 1.77 1.71 1.68 1.70 1.75 1.80 1.78 1.75 1.80
1.67 1.80 1.84 1.86 1.90 1.89 1.95 1.99 2.02 2.04 2.06 2.07 2.10 2.12 2.11 2.07 2.05 2.04 2.04 2.02 2.00 1.97 1.95 1.90 1.89 1.92 1.96 1.97 1.94 1.89 1.74 1.72 1.69 1.70 1.75 1.80 1.85 1.89 1.90 1.91 1.93 1.92 1.92 1.93 1.94 1.95 1.96 1.99 1.99 1.99 1.97 1.91 1.87 1.92 1.94 2.03 2.07 2.09 2.06 1.97 1.92 1.93 1.93 1.96 1.92 1.91 1.89 1.88 1.89 2.01 2.05 1.98 1.95 1.91 1.79 1.78 1.75 1.70 1.68 1.69 1.74 1.79 1.79 1.76 1.76
1.70 1.80 1.82 1.87 1.85 1.82 1.91 1.97 1.99 2.01 2.02 2.01 2.05 2.08 2.07 2.04 2.03 2.02 2.03 2.03 2.01 1.99 1.95 1.94 1.94 1.94 1.95 1.93 1.92 1.83 1.75 1.73 1.72 1.75 1.80 1.87 1.90 1.91 1.93 1.96 1.99 1.99 2.00 2.01 2.01 2.03 2.04 2.06 2.07 2.08 2.10 2.08 2.02 1.93 1.99 2.06 2.11 2.11 2.15 2.15 2.13 2.11 2.11 2.08 2.11 1.99 1.96 1.97 2.02 2.02 1.96 1.93 1.99 1.95 1.79 1.76 1.73 1.70 1.66 1.70 1.76 1.78 1.78 1.80 1.77
1.71 1.80 1.83 1.87 1.82 1.74 1.82 1.90 1.95 1.99 1.99 1.99 2.02 2.03 2.01 1.99 1.99 1.99 2.00 2.01 1.98 1.97 1.96 1.96 1.95 1.95 1.93 1.90 1.84 1.79 1.78 1.77 1.79 1.86 1.90 1.91 1.98 2.04 2.06 2.10 2.06 2.07 2.04 2.04 2.06 2.07 2.08 2.10 2.11 2.13 2.15 2.14 2.11 2.09 2.02 2.06 2.09 2.14 2.15 2.14 2.14 2.16 2.16 2.15 2.17 2.17 2.11 2.12 2.18 2.02 1.96 1.92 1.95 1.98 1.81 1.76 1.74 1.68 1.66 1.71 1.78 1.79 1.77 1.79 1.81
1.65 1.79 1.86 1.90 1.81 1.70 1.74 1.79 1.86 1.92 1.96 1.99 1.99 1.98 1.95 1.94 1.94 1.95 1.95 1.94 1.94 1.95 1.95 1.95 1.94 1.92 1.89 1.82 1.78 1.78 1.78 1.80 1.86 1.88 1.93 2.01 2.09 2.10 2.07 2.08 2.09 2.08 2.07 2.06 2.07 2.07 2.09 2.10 2.12 2.15 2.18 2.18 2.18 2.17 2.15 2.16 2.15 2.15 2.19 2.18 2.17 2.18 2.17 2.19 2.19 2.19 2.19 2.18 2.17 2.00 1.91 1.92 1.97 2.01 1.84 1.78 1.76 1.68 1.65 1.70 1.73 1.74 1.76 1.77 1.79
1.66 1.79 1.84 1.90 1.78 1.70 1.70 1.74 1.78 1.81 1.86 1.91 1.94 1.95 1.93 1.92 1.90 1.91 1.91 1.89 1.88 1.88 1.87 1.87 1.85 1.82 1.78 1.76 1.78 1.79 1.81 1.83 1.86 1.92 2.00 2.09 2.12 2.10 2.07 2.09 2.09 2.08 2.07 2.07 2.07 2.08 2.09 2.11 2.13 2.14 2.19 2.22 2.17 2.17 2.17 2.17 2.23 2.21 2.19 2.21 2.23 2.24 2.22 2.21 2.23 2.25 2.18 2.19 2.11 1.98 1.90 1.86 1.92 2.02 1.88 1.80 1.77 1.69 1.64 1.69 1.76 1.73 1.72 1.70 1.70
1.65 1.73 1.79 2.03 1.87 1.73 1.76 1.74 1.73 1.75 1.77 1.82 1.88 1.89 1.89 1.91 1.92 1.90 1.88 1.82 1.82 1.82 1.80 1.78 1.77 1.78 1.79 1.81 1.81 1.82 1.83 1.85 1.91 2.00 2.09 2.09 2.10 2.08 2.06 2.08 2.07 2.05 2.06 2.07 2.07 2.09 2.12 2.14 2.17 2.14 2.16 2.18 2.17 2.21 2.22 2.24 2.23 2.23 2.23 2.24 2.27 2.29 2.27 2.24 2.26 2.26 2.19 2.23 2.11 2.06 1.97 1.75 1.88 1.99 1.89 1.81 1.77 1.71 1.65 1.67 1.70 1.68 1.71 1.69 1.68
1.62 1.71 1.79 1.84 1.81 1.77 1.78 1.75 1.74 1.68 1.72 1.80 1.84 1.84 1.85 1.86 1.85 1.84 1.82 1.83 1.84 1.83 1.82 1.82 1.83 1.84 1.84 1.83 1.84 1.85 1.88 1.94 2.01 2.05 2.08 2.07 2.03 2.04 2.05 2.03 2.03 2.04 2.04 2.06 2.07 2.08 2.13 2.20 2.16 2.16 2.19 2.17 2.20 2.25 2.28 2.28 2.23 2.24 2.24 2.26 2.27 2.29 2.29 2.28 2.27 2.22 2.30 2.24 2.16 2.12 2.02 1.80 1.84 2.00 1.90 1.80 1.74 1.70 1.67 1.62 1.67 1.66 1.70 1.71 1.68
1.55 1.65 1.75 1.79 1.77 1.74 1.78 1.78 1.73 1.70 1.70 1.71 1.76 1.80 1.81 1.81 1.81 1.82 1.82 1.83 1.84 1.84 1.84 1.84 1.86 1.86 1.86 1.85 1.85 1.91 1.98 2.01 2.03 2.06 2.03 2.01 2.01 2.02 2.02 2.03 2.04 2.03 2.04 2.04 2.03 2.04 2.14 2.12 2.14 2.16 2.21 2.23 2.25 2.28 2.30 2.31 2.28 2.25 2.24 2.28 2.28 2.27 2.28 2.28 2.26 2.24 2.25 2.22 2.18 2.11 2.03 1.94 1.85 1.95 1.84 1.77 1.75 1.70 1.65 1.63 1.67 1.67 1.71 1.70 1.69
1.45 1.56 1.67 1.76 1.74 1.71 1.73 1.75 1.74 1.73 1.74 1.75 1.74 1.79 1.81 1.83 1.83 1.86 1.84 1.82 1.84 1.83 1.84 1.85 1.88 1.89 1.89 1.92 1.93 1.98 2.00 1.99 2.00 1.98 1.96 1.97 1.98 1.98 2.02 2.02 2.02 2.02 2.02 2.02 2.04 2.06 2.04 2.07 2.15 2.17 2.20 2.23 2.26 2.32 2.33 2.33 2.32 2.27 2.26 2.27 2.25 2.29 2.29 2.26 2.29 2.26 2.24 2.19 2.18 2.16 2.09 2.01 1.94 1.89 1.78 1.77 1.75 1.71 1.67 1.62 1.65 1.68 1.70 1.67 1.68
1.45 1.48 1.59 1.72 1.73 1.71 1.74 1.75 1.77 1.76 1.79 1.77 1.76 1.79 1.81 1.87 1.89 1.87 1.87 1.86 1.86 1.87 1.91 1.93 1.97 1.98 1.95 1.98 1.97 1.96 1.96 1.94 1.92 1.90 1.91 1.93 1.94 1.96 1.96 1.98 2.00 2.01 2.02 2.05 2.08 2.11 2.14 2.16 2.20 2.21 2.25 2.26 2.27 2.28 2.29 2.28 2.30 2.32 2.32 2.32 2.25 2.28 2.32 2.30 2.29 2.28 2.27 2.17 2.21 2.16 2.18 2.05 2.00 1.87 1.75 1.76 1.74 1.68 1.69 1.65 1.68 1.67 1.70 1.67 1.68
1.54 1.48 1.56 1.67 1.71 1.73 1.73 1.77 1.77 1.77 1.78 1.77 1.78 1.81 1.83 1.86 1.87 1.87 1.86 1.85 1.89 1.95 1.97 1.98 2.00 1.99 1.96 1.99 1.98 1.94 1.92 1.90 1.89 1.88 1.90 1.92 1.95 1.97 1.98 1.99 2.03 2.07 2.10 2.15 2.22 2.26 2.29 2.29 2.29 2.31 2.32 2.32 2.29 2.27 2.28 2.30 2.32 2.33 2.32 2.35 2.32 2.29 2.30 2.31 2.28 2.22 2.24 2.23 2.21 2.18 2.14 2.15 2.01 1.86 1.74 1.73 1.72 1.68 1.68 1.66 1.70 1.71 1.69 1.68 1.66
1.52 1.51 1.53 1.65 1.71 1.71 1.76 1.73 1.76 1.77 1.77 1.76 1.77 1.79 1.78 1.78 1.78 1.79 1.81 1.82 1.85 1.95 1.97 1.97 1.99 1.98 1.96 1.93 1.92 1.94 1.91 1.89 1.87 1.88 1.91 1.93 1.97 2.03 2.05 2.06 2.09 2.12 2.15 2.20 2.25 2.28 2.28 2.27 2.27 2.29 2.31 2.32 2.31 2.32 2.32 2.32 2.33 2.29 2.32 2.27 2.30 2.28 2.30 2.31 2.28 2.27 2.31 2.25 2.22 2.18 2.18 2.18 2.02 1.91 1.77 1.72 1.72 1.69 1.67 1.68 1.69 1.72 1.66 1.67 1.67
1.53 1.50 1.52 1.62 1.67 1.70 1.78 1.72 1.69 1.68 1.79 1.74 1.75 1.81 1.82 1.83 1.81 1.82 1.82 1.83 1.89 1.94 1.98 1.99 1.98 1.93 1.94 1.93 1.94 1.94 1.91 1.89 1.89 1.93 1.93 1.97 2.01 2.05 2.07 2.08 2.10 2.14 2.15 2.20 2.25 2.27 2.27 2.23 2.26 2.30 2.31 2.29 2.27 2.29 2.31 2.33 2.30 2.26 2.33 2.32 2.29 2.30 2.31 2.33 2.31 2.30 2.24 2.30 2.22 2.23 2.14 2.16 2.16 1.95 1.79 1.76 1.72 1.70 1.71 1.69 1.67 1.72 1.71 1.69 1.71
1.53 1.49 1.55 1.57 1.63 1.69 1.72 1.70 1.63 1.62 1.74 1.80 1.83 1.84 1.83 1.88 1.90 1.90 1.90 1.93 1.96 1.99 2.01 2.01 1.99 1.94 1.94 1.96 1.96 1.95 1.93 1.91 1.94 1.94 1.96 1.97 2.00 2.04 2.10 2.12 2.13 2.16 2.19 2.22 2.25 2.23 2.22 2.20 2.31 2.30 2.32 2.30 2.29 2.28 2.31 2.33 2.31 2.34 2.36 2.34 2.33 2.30 2.29 2.36 2.32 2.25 2.24 2.29 2.33 2.24 2.16 2.15 2.19 2.05 1.86 1.79 1.73 1.70 1.74 1.74 1.65 1.70 1.73 1.70 1.68
1.50 1.49 1.53 1.54 1.60 1.65 1.68 1.67 1.57 1.59 1.67 1.82 1.91 1.91 1.86 1.90 1.92 1.94 1.91 1.95 1.95 1.97 2.02 2.04 1.99 1.95 1.95 1.96 1.95 1.94 1.95 1.98 1.95 1.97 1.99 2.02 2.07 2.09 2.12 2.12 2.14 2.15 2.19 2.22 2.19 2.26 2.30 2.26 2.28 2.27 2.22 2.23 2.26 2.26 2.28 2.33 2.40 2.35 2.35 2.34 2.34 2.34 2.30 2.34 2.25 2.23 2.24 2.26 2.23 2.24 2.26 2.12 2.19 2.12 1.93 1.84 1.74 1.70 1.77 1.76 1.67 1.70 1.71 1.68 1.67
1.45 1.48 1.52 1.51 1.54 1.57 1.61 1.59 1.53 1.64 1.72 1.80 1.89 1.92 1.92 1.90 1.91 1.90 1.87 1.85 1.85 1.86 1.92 1.97 1.99 2.00 1.97 1.99 1.92 1.92 2.00 2.05 1.95 1.95 2.00 2.09 2.09 2.09 2.08 2.09 2.11 2.13 2.17 2.21 2.23 2.26 2.30 2.35 2.33 2.33 2.30 2.27 2.25 2.26 2.28 2.29 2.33 2.36 2.36 2.35 2.37 2.34 2.33 2.27 2.27 2.28 2.21 2.24 2.25 2.24 2.21 2.09 2.16 2.13 1.99 1.93 1.79 1.73 1.74 1.80 1.72 1.67 1.69 1.62 1.67
1.32 1.42 1.48 1.50 1.50 1.51 1.54 1.53 1.55 1.69 1.72 1.76 1.78 1.88 1.95 1.85 1.93 1.92 1.91 1.82 1.77 1.81 1.92 2.02 2.09 2.10 2.03 1.94 1.96 2.00 1.98 1.97 1.95 1.92 1.93 2.00 2.03 2.02 1.98 1.99 2.05 2.09 2.14 2.21 2.23 2.24 2.26 2.28 2.31 2.31 2.31 2.33 2.37 2.33 2.35 2.32 2.29 2.31 2.34 2.34 2.33 2.31 2.29 2.28 2.31 2.22 2.18 2.25 2.24 2.24 2.20 2.12 2.09 2.15 2.06 1.98 1.89 1.78 1.80 1.80 1.75 1.65 1.68 1.71 1.63
1.17 1.25 1.36 1.43 1.45 1.47 1.48 1.44 1.54 1.68 1.72 1.69 1.69 1.72 1.77 1.80 1.88 1.94 1.93 1.84 1.95 1.93 2.03 2.09 2.10 2.12 2.11 2.02 1.99 2.01 1.91 1.94 1.98 1.99 2.00 1.98 1.94 1.92 1.93 1.94 1.97 2.00 2.06 2.13 2.19 2.22 2.25 2.27 2.29 2.30 2.30 2.31 2.36 2.36 2.38 2.34 2.30 2.30 2.30 2.34 2.33 2.34 2.31 2.30 2.29 2.24 2.20 2.23 2.23 2.26 2.18 2.15 2.10 2.12 2.11 2.02 1.93 1.87 1.80 1.82 1.75 1.65 1.70 1.67 1.72
1.18 1.24 1.27 1.38 1.39 1.39 1.42 1.47 1.51 1.65 1.71 1.70 1.69 1.68 1.69 1.71 1.80 1.89 1.94 1.93 1.99 2.05 2.06 2.11 2.10 2.09 2.02 1.93 1.88 1.86 1.82 1.89 1.91 1.83 1.81 1.90 1.99 1.98 1.94 1.90 1.92 2.00 2.08 2.14 2.19 2.23 2.26 2.28 2.28 2.28 2.30 2.32 2.31 2.30 2.29 2.27 2.27 2.30 2.32 2.32 2.29 2.35 2.34 2.32 2.26 2.27 2.27 2.25 2.22 2.24 2.21 2.17 2.12 2.14 2.13 2.07 1.98 1.89 1.87 1.81 1.78 1.69 1.70 1.64 1.72
1.28 1.33 1.37 1.36 1.40 1.38 1.41 1.45 1.58 1.63 1.68 1.74 1.69 1.70 1.71 1.70 1.76 1.85 1.86 1.89 1.99 2.06 2.08 2.07 2.08 2.03 1.95 1.88 1.83 1.83 1.83 1.88 1.92 1.93 1.92 1.92 1.86 1.89 1.96 2.01 2.03 2.08 2.15 2.14 2.16 2.19 2.25 2.26 2.27 2.26 2.27 2.28 2.26 2.24 2.23 2.24 2.27 2.29 2.26 2.29 2.30 2.33 2.36 2.34 2.29 2.26 2.27 2.20 2.24 2.22 2.18 2.19 2.14 2.13 2.13 2.11 2.05 1.95 1.86 1.80 1.79 1.74 1.72 1.67 1.65
1.28 1.24 1.27 1.32 1.35 1.35 1.40 1.48 1.52 1.60 1.69 1.72 1.70 1.75 1.73 1.71 1.74 1.82 1.82 1.84 1.91 1.98 2.02 2.01 1.96 1.91 1.85 1.86 1.86 1.83 1.79 1.82 1.87 1.88 1.86 1.87 1.84 1.89 1.92 2.00 2.05 2.07 2.19 2.17 2.17 2.20 2.23 2.22 2.20 2.20 2.24 2.28 2.28 2.26 2.27 2.28 2.25 2.29 2.28 2.25 2.28 2.25 2.25 2.33 2.30 2.27 2.25 2.25 2.22 2.19 2.17 2.16 2.16 2.12 2.10 2.09 2.08 2.00 1.92 1.85 1.78 1.70 1.70 1.73 1.64
1.15 1.15 1.21 1.25 1.30 1.33 1.38 1.47 1.51 1.60 1.68 1.67 1.74 1.76 1.70 1.73 1.72 1.74 1.76 1.79 1.83 1.82 1.83 1.85 1.86 1.86 1.86 1.83 1.76 1.78 1.79 1.81 1.83 1.80 1.78 1.82 1.84 1.85 1.88 1.95 2.01 2.03 2.11 2.08 2.07 2.15 2.18 2.17 2.18 2.20 2.24 2.22 2.24 2.26 2.29 2.33 2.31 2.28 2.28 2.26 2.28 2.25 2.28 2.31 2.33 2.32 2.24 2.24 2.20 2.21 2.20 2.17 2.16 2.11 2.05 2.06 2.08 2.07 1.94 1.93 1.90 1.70 1.68 1.78 1.72
1.10 1.10 1.17 1.21 1.25 1.31 1.38 1.44 1.54 1.63 1.66 1.69 1.69 1.68 1.72 1.76 1.73 1.71 1.63 1.72 1.76 1.72 1.71 1.77 1.80 1.84 1.78 1.79 1.77 1.81 1.81 1.81 1.80 1.76 1.80 1.81 1.83 1.83 1.90 1.92 1.92 1.98 2.09 2.08 2.03 2.05 2.11 2.16 2.17 2.18 2.20 2.19 2.18 2.25 2.27 2.29 2.30 2.30 2.23 2.21 2.22 2.23 2.24 2.29 2.32 2.32 2.31 2.27 2.28 2.24 2.21 2.16 2.15 2.13 2.05 2.04 2.03 2.01 2.00 1.96 1.93 1.74 1.75 1.81 1.81
1.08 1.13 1.19 1.22 1.27 1.32 1.42 1.42 1.52 1.58 1.68 1.71 1.69 1.72 1.74 1.71 1.72 1.68 1.67 1.67 1.65 1.70 1.76 1.78 1.74 1.77 1.77 1.73 1.75 1.77 1.81 1.79 1.79 1.76 1.75 1.74 1.79 1.83 1.85 1.85 1.86 1.87 1.96 2.02 2.05 1.99 2.02 2.11 2.12 2.13 2.18 2.16 2.15 2.16 2.18 2.21 2.21 2.17 2.15 2.13 2.16 2.18 2.21 2.24 2.27 2.28 2.29 2.26 2.29 2.28 2.22 2.16 2.14 2.13 2.08 2.07 2.04 2.01 2.03 1.93 1.88 1.83 1.78 1.82 1.83
1.21 1.23 1.26 1.28 1.33 1.37 1.39 1.44 1.50 1.62 1.66 1.71 1.73 1.73 1.74 1.69 1.67 1.68 1.71 1.69 1.67 1.74 1.76 1.74 1.77 1.79 1.80 1.78 1.76 1.79 1.79 1.78 1.80 1.74 1.70 1.71 1.75 1.78 1.81 1.82 1.82 1.87 1.90 1.87 2.01 1.99 2.02 2.09 2.14 2.15 2.16 2.16 2.12 2.08 2.09 2.11 2.12 2.12 2.13 2.11 2.13 2.16 2.18 2.19 2.24 2.24 2.27 2.31 2.31 2.30 2.25 2.18 2.14 2.16 2.10 2.09 2.08 2.04 2.02 1.98 1.85 1.83 1.74 1.80 1.84
1.36 1.31 1.32 1.33 1.37 1.40 1.44 1.49 1.54 1.61 1.69 1.70 1.74 1.74 1.74 1.70 1.72 1.72 1.71 1.65 1.69 1.70 1.69 1.70 1.79 1.83 1.83 1.85 1.80 1.77 1.74 1.75 1.71 1.72 1.73 1.74 1.79 1.82 1.83 1.83 1.79 1.83 1.87 1.86 1.91 2.00 2.09 2.13 2.15 2.13 2.13 2.12 2.09 2.11 2.07 2.03 2.05 2.09 2.12 2.10 2.11 2.16 2.18 2.22 2.23 2.27 2.25 2.31 2.30 2.28 2.28 2.21 2.18 2.16 2.13 2.08 2.09 2.05 2.01 1.97 1.90 1.78 1.86 1.91 1.90
1.41 1.41 1.43 1.46 1.42 1.40 1.45 1.55 1.60 1.70 1.68 1.72 1.74 1.71 1.70 1.70 1.71 1.70 1.67 1.68 1.66 1.67 1.69 1.74 1.77 1.79 1.85 1.87 1.83 1.78 1.78 1.76 1.70 1.70 1.72 1.76 1.78 1.81 1.83 1.82 1.80 1.82 1.85 1.86 1.87 2.03 2.09 2.18 2.19 2.16 2.18 2.13 2.08 2.11 2.10 2.02 2.00 2.04 2.07 2.05 2.06 2.06 2.08 2.14 2.19 2.26 2.29 2.31 2.31 2.29 2.29 2.26 2.22 2.18 2.12 2.10 2.08 2.08 2.02 2.00 1.92 1.90 1.88 1.90 1.89
1.52 1.54 1.54 1.53 1.51 1.50 1.47 1.55 1.63 1.71 1.73 1.69 1.74 1.75 1.73 1.71 1.70 1.67 1.68 1.66 1.63 1.64 1.65 1.72 1.76 1.80 1.82 1.82 1.80 1.77 1.73 1.69 1.74 1.78 1.78 1.80 1.81 1.79 1.81 1.81 1.85 1.89 1.91 1.89 1.92 2.02 2.14 2.20 2.25 2.26 2.20 2.12 2.07 2.04 2.05 2.03 2.02 2.03 2.05 2.04 2.00 1.95 2.01 2.05 2.13 2.22 2.28 2.30 2.31 2.30 2.25 2.27 2.27 2.22 2.16 2.12 2.09 2.07 2.03 2.00 1.99 1.95 1.91 1.86 1.87
1.56 1.61 1.60 1.60 1.62 1.64 1.66 1.68 1.64 1.63 1.68 1.74 1.75 1.77 1.76 1.74 1.74 1.73 1.70 1.65 1.66 1.66 1.68 1.72 1.75 1.77 1.79 1.79 1.75 1.76 1.76 1.81 1.83 1.85 1.83 1.77 1.75 1.74 1.78 1.84 1.92 1.97 1.95 1.96 1.93 1.99 2.08 2.13 2.18 2.17 2.14 2.10 2.00 1.98 1.94 1.94 1.99 1.98 1.98 1.96 1.94 1.94 2.00 2.08 2.15 2.21 2.28 2.32 2.33 2.30 2.27 2.26 2.29 2.26 2.19 2.14 2.12 2.09 2.08 2.07 2.05 2.01 1.98 1.88 1.85
1.61 1.66 1.66 1.67 1.69 1.71 1.75 1.74 1.75 1.68 1.69 1.67 1.72 1.76 1.79 1.76 1.75 1.73 1.73 1.72 1.69 1.67 1.72 1.74 1.75 1.76 1.79 1.80 1.78 1.77 1.82 1.86 1.88 1.84 1.81 1.77 1.73 1.75 1.78 1.86 1.95 1.95 1.93 1.96 1.91 1.99 2.10 2.11 2.16 2.10 2.12 2.05 1.98 1.92 1.88 1.85 1.81 1.81 1.85 1.87 1.90 1.99 2.08 2.17 2.22 2.23 2.25 2.30 2.33 2.30 2.29 2.28 2.32 2.24 2.21 2.16 2.13 2.12 2.11 2.10 2.06 2.03 2.00 1.96 1.91
1.61 1.66 1.71 1.74 1.72 1.76 1.79 1.72 1.74 1.69 1.68 1.71 1.74 1.78 1.82 1.82 1.78 1.76 1.77 1.79 1.74 1.74 1.75 1.76 1.79 1.81 1.82 1.82 1.87 1.88 1.88 1.90 1.91 1.90 1.81 1.80 1.74 1.73 1.82 2.02 2.04 1.95 2.01 1.96 1.96 2.01 2.10 2.13 2.15 2.12 2.02 1.95 1.87 1.83 1.83 1.76 1.71 1.65 1.73 1.79 1.91 1.99 2.09 2.18 2.19 2.22 2.27 2.29 2.28 2.29 2.30 2.28 2.28 2.31 2.25 2.17 2.13 2.11 2.12 2.11 2.07 2.04 2.01 1.98 1.95
1.68 1.67 1.68 1.72 1.72 1.77 1.78 1.73 1.71 1.68 1.67 1.70 1.74 1.77 1.82 1.83 1.87 1.85 1.80 1.79 1.75 1.71 1.72 1.76 1.79 1.80 1.86 1.87 1.93 1.97 1.94 1.94 1.92 1.90 1.84 1.79 1.73 1.73 1.93 2.06 2.01 1.98 1.99 1.99 2.01 2.10 2.13 2.13 2.15 2.12 2.05 1.90 1.85 1.79 1.75 1.63 1.51 1.49 1.58 1.72 1.85 2.01 2.16 2.16 2.17 2.21 2.25 2.24 2.25 2.27 2.26 2.24 2.25 2.28 2.25 2.20 2.15 2.11 2.10 2.12 2.09 2.05 2.02 2.00 1.99
1.72 1.73 1.75 1.75 1.76 1.77 1.76 1.77 1.79 1.82 1.79 1.74 1.74 1.75 1.77 1.78 1.82 1.87 1.90 1.84 1.78 1.76 1.77 1.80 1.79 1.78 1.76 1.76 1.85 1.90 1.88 1.87 1.89 1.89 1.85 1.78 1.69 1.71 1.92 2.02 2.01 1.99 2.01 2.02 2.05 2.15 2.17 2.17 2.08 2.10 2.00 1.88 1.81 1.71 1.57 1.46 1.37 1.42 1.52 1.65 1.78 1.97 2.12 2.14 2.17 2.22 2.20 2.17 2.19 2.21 2.21 2.22 2.21 2.19 2.20 2.16 2.13 2.08 2.07 2.10 2.11 2.08 2.05 2.03 2.01
1.74 1.77 1.79 1.79 1.78 1.75 1.77 1.80 1.85 1.92 1.94 1.90 1.84 1.81 1.81 1.81 1.80 1.78 1.77 1.81 1.86 1.86 1.82 1.77 1.76 1.77 1.74 1.75 1.76 1.78 1.83 1.87 1.88 1.92 1.90 1.81 1.79 1.95 1.98 2.04 2.01 2.02 1.99 1.99 2.07 2.12 2.14 2.17 2.11 2.02 2.04 1.97 1.81 1.68 1.54 1.39 1.36 1.39 1.43 1.53 1.70 1.93 2.04 2.14 2.19 2.16 2.17 2.17 2.17 2.19 2.21 2.17 2.19 2.21 2.19 2.17 2.11 2.08 2.06 2.11 2.13 2.12 2.08 2.05 2.03
1.76 1.79 1.78 1.78 1.77 1.78 1.79 1.82 1.88 1.94 1.98 1.97 1.98 1.93 1.89 1.81 1.75 1.79 1.73 1.72 1.73 1.73 1.80 1.80 1.80 1.78 1.83 1.88 1.91 1.86 1.91 1.93 1.97 2.04 2.03 1.99 2.00 2.05 2.07 2.07 2.09 2.07 2.04 1.99 2.04 2.08 2.08 2.09 2.07 2.01 1.97 1.93 1.86 1.69 1.52 1.36 1.36 1.38 1.31 1.53 1.65 1.80 1.94 2.06 2.13 2.12 2.13 2.15 2.16 2.19 2.15 2.19 2.18 2.20 2.18 2.14 2.11 2.10 2.06 2.15 2.14 2.13 2.13 2.07 2.02
1.75 1.76 1.76 1.75 1.78 1.78 1.79 1.77 1.90 1.97 1.95 1.94 1.94 1.93 1.87 1.87 1.87 1.81 1.77 1.86 1.87 1.90 1.89 1.91 1.89 1.89 1.94 2.00 2.01 1.97 2.01 2.09 2.12 2.14 2.13 2.11 2.07 2.10 2.09 2.12 2.14 2.10 2.08 2.07 2.11 2.14 2.17 2.12 2.06 2.04 1.91 1.79 1.77 1.63 1.48 1.36 1.24 1.11 1.19 1.25 1.59 1.75 1.86 1.95 2.02 2.06 2.12 2.14 2.14 2.12 2.16 2.17 2.17 2.20 2.22 2.22 2.19 2.14 2.09 2.14 2.08 2.11 2.14 2.12 2.07
1.74 1.78 1.76 1.77 1.81 1.86 1.82 1.84 1.91 1.94 1.96 1.95 1.94 1.91 1.89 1.85 1.82 1.85 1.86 1.88 1.90 1.91 1.94 2.03 2.08 2.10 2.09 2.08 2.07 2.07 2.09 2.16 2.17 2.23 2.17 2.15 2.15 2.14 2.13 2.11 2.11 2.07 2.09 2.14 2.15 2.13 2.16 2.10 2.08 1.97 1.97 1.83 1.67 1.53 1.44 1.30 1.09 0.99 1.00 0.99 1.43 1.62 1.76 1.85 1.92 1.97 2.02 2.09 2.15 2.07 2.10 2.08 2.10 2.10 2.20 2.14 2.19 2.20 2.19 2.15 2.13 2.09 2.09 2.11 2.09
1.82 1.84 1.86 1.85 1.87 1.88 1.88 1.89 1.95 1.96 1.97 1.96 1.92 1.88 1.94 1.96 1.92 1.92 1.94 1.95 2.06 2.10 2.11 2.16 2.20 2.21 2.26 2.22 2.17 2.18 2.17 2.14 2.19 2.24 2.19 2.22 2.20 2.15 2.13 2.11 2.09 2.12 2.11 2.09 2.14 2.11 2.12 2.06 2.06 1.93 1.83 1.87 1.75 1.64 1.44 1.33 1.07 1.06 1.06 0.90 0.96 1.14 1.52 1.71 1.83 1.82 1.92 1.98 2.05 1.99 2.07 2.05 2.10 2.11 2.11 2.14 2.18 2.17 2.19 2.18 2.10 2.07 2.05 2.06 2.08
1.87 1.89 1.93 1.94 1.97 1.93 1.91 1.92 1.93 1.97 1.98 2.02 2.02 2.06 2.08 2.10 2.12 2.13 2.13 2.11 2.07 2.16 2.18 2.21 2.21 2.20 2.11 2.13 2.22 2.29 2.16 2.14 2.19 2.20 2.25 2.25 2.24 2.20 2.16 2.13 2.13 2.16 2.11 2.06 2.09 2.08 2.07 2.05 2.06 1.97 1.91 1.65 1.58 1.47 1.49 1.43 1.27 1.10 0.89 0.84 0.88 1.05 1.07 1.24 1.38 1.61 1.76 1.79 1.89 1.92 1.97 1.99 2.04 2.04 2.09 2.05 2.00 2.10 2.20 2.16 2.14 2.10 2.07 2.09 2.10
1.90 1.91 1.94 2.00 2.04 2.00 2.02 2.04 2.05 2.06 2.07 2.10 2.11 2.14 2.14 2.12 2.14 2.14 2.16 2.12 2.12 2.08 2.06 2.04 2.12 2.16 2.18 2.19 2.29 2.36 2.23 2.16 2.21 2.24 2.30 2.28 2.22 2.18 2.12 2.11 2.14 2.19 2.18 2.13 2.08 2.06 2.03 2.04 2.06 1.96 1.84 1.60 1.42 1.25 1.43 1.44 1.33 1.35 1.17 1.01 0.86 0.80 0.78 1.06 1.24 1.48 1.57 1.62 1.71 1.77 1.81 1.96 1.94 2.00 1.99 2.01 2.08 2.07 2.11 2.14 2.12 2.14 2.14 2.15 2.13
1.89 1.95 1.99 2.06 2.10 2.12 2.14 2.14 2.14 2.14 2.15 2.17 2.16 2.13 2.07 2.02 1.98 1.91 1.85 1.86 1.83 1.87 1.86 1.90 1.99 2.12 2.12 2.23 2.33 2.35 2.35 2.30 2.31 2.33 2.28 2.22 2.16 2.18 2.16 2.15 2.19 2.19 2.21 2.17 2.10 2.07 1.98 1.97 1.99 1.93 1.78 1.67 1.41 1.22 1.19 1.47 1.28 1.28 1.29 1.25 1.18 0.96 0.89 0.93 1.02 1.02 1.47 1.45 1.59 1.65 1.69 1.76 1.83 1.86 1.89 1.89 1.90 2.01 2.11 2.04 2.10 2.06 2.09 2.12 2.19
1.91 2.02 2.06 2.06 2.10 2.14 2.16 2.12 2.12 2.13 2.12 2.13 2.13 2.05 1.98 1.95 1.90 1.86 1.85 1.81 1.77 1.85 1.99 2.05 2.08 2.16 2.21 2.21 2.27 2.37 2.39 2.35 2.35 2.31 2.29 2.26 2.25 2.24 2.24 2.23 2.19 2.21 2.22 2.13 2.04 1.97 1.96 1.94 1.99 1.80 1.67 1.48 1.45 1.23 1.03 1.07 1.09 1.22 1.14 1.16 1.20 1.25 1.24 1.06 0.85 0.93 0.96 1.21 1.48 1.44 1.59 1.69 1.71 1.74 1.75 1.79 1.83 1.84 2.02 2.07 2.07 2.12 2.22 2.20 2.24
1.94 1.99 1.99 2.02 2.06 2.07 2.07 2.07 2.08 2.04 2.05 2.03 1.99 1.98 1.90 1.90 1.88 1.88 1.90 1.89 1.91 1.94 2.07 2.16 2.27 2.30 2.27 2.32 2.34 2.37 2.43 2.42 2.36 2.36 2.33 2.27 2.26 2.21 2.25 2.22 2.17 2.18 2.11 2.04 1.97 1.94 1.88 1.98 1.74 1.71 1.51 1.49 1.36 1.22 1.14 1.23 1.14 1.15 1.20 1.17 1.09 1.13 1.19 1.24 1.26 1.01 0.87 0.89 1.08 1.44 1.47 1.47 1.61 1.70 1.72 1.73 1.73 1.73 1.79 1.88 1.92 1.96 2.07 2.11 2.11
1.86 1.86 1.86 1.91 1.95 1.95 1.94 1.94 1.92 1.92 1.92 1.91 1.86 1.86 1.88 1.90 1.92 1.91 1.86 1.94 2.00 2.04 2.12 2.18 2.18 2.24 2.22 2.27 2.30 2.33 2.36 2.38 2.34 2.29 2.27 2.28 2.26 2.30 2.15 2.14 2.11 2.04 2.01 2.00 1.95 1.85 1.75 1.63 1.58 1.49 1.44 1.32 1.33 1.33 1.34 1.32 1.31 1.29 1.30 1.29 1.21 1.11 1.06 1.17 1.21 1.23 1.05 0.89 0.85 0.98 1.08 1.29 1.41 1.49 1.53 1.61 1.67 1.71 1.76 1.75 1.77 1.80 1.88 1.91 1.98
1.75 1.76 1.78 1.78 1.78 1.79 1.78 1.79 1.82 1.85 1.86 1.86 1.85 1.82 1.79 1.78 1.72 1.74 1.72 1.78 1.89 2.00 2.05 2.02 2.02 2.10 2.07 2.14 2.23 2.28 2.31 2.31 2.27 2.22 2.21 2.23 2.23 2.19 2.08 2.05 2.03 2.01 1.96 1.86 1.77 1.57 1.44 1.37 1.32 1.31 1.33 1.34 1.37 1.40 1.37 1.36 1.37 1.38 1.38 1.36 1.29 1.20 1.08 1.00 1.00 1.05 1.11 1.09 0.96 0.92 0.93 1.00 1.04 1.22 1.35 1.41 1.47 1.56 1.67 1.75 1.75 1.76 1.78 1.78 1.80
1.62 1.63 1.66 1.67 1.71 1.75 1.76 1.76 1.80 1.85 1.86 1.82 1.75 1.67 1.63 1.61 1.62 1.67 1.67 1.66 1.76 1.85 1.89 1.86 1.88 1.91 1.91 1.94 2.01 2.08 2.29 2.25 2.19 2.12 2.17 2.14 2.16 2.00 1.95 1.89 1.94 1.83 1.74 1.67 1.42 1.31 1.28 1.27 1.35 1.39 1.42 1.42 1.42 1.44 1.43 1.43 1.43 1.44 1.45 1.44 1.36 1.23 1.11 0.96 1.06 1.07 1.04 1.01 1.04 1.04 1.05 1.02 1.00 1.01 1.16 1.27 1.33 1.39 1.41 1.51 1.50 1.64 1.68 1.75 1.81
Wind_Speed
11 11 12 12 13 13 13 14 14 14 14 15 15 16 16 16 16 16 16 15 15 15 15 14 14 13 12 11 11 10 10 9 8 8 7 6 5 4 3 3 2 2 1 1 1 1 2 2 3 3 4 4 5 5 5 5 5 5 4 5 5 4 4 3 3 3 3 3 3 3 4 4 4 5 5 6 6 6 6 5 5 5 4 3 2
12 12 12 13 13 14 14 14 14 14 14 15 16 16 16 16 16 16 15 15 15 15 14 14 13 12 11 11 10 10 9 8 8 6 5 5 4 3 2 2 1 1 1 1 2 2 2 3 3 4 4 5 5 5 5 5 5 5 5 5 5 5 4 4 4 4 4 3 4 4 4 4 4 5 5 6 6 6 6 5 5 4 4 3 2
13 12 13 13 13 14 14 14 14 14 14 15 15 15 15 15 15 15 15 14 14 14 14 13 12 12 11 10 10 9 8 7 6 5 4 3 2 2 1 1 1 1 1 2 2 3 3 4 4 4 5 5 5 5 5 5 5 5 5 5 5 5 5 4 4 4 4 4 4 4 4 5 5 5 5 5 6 6 6 5 5 4 3 2 1
13 13 13 13 13 13 14 14 14 14 14 14 15 15 15 15 15 14 14 14 13 13 13 12 12 11 10 9 9 8 7 6 5 4 3 2 1 1 0 1 1 1 2 2 3 3 4 4 5 5 5 5 5 5 5 5 5 5 5 5 5 5 5 5 5 5 4 4 4 4 4 5 5 5 5 5 6 6 6 5 4 4 3 2 1
13 13 13 13 13 13 14 14 14 14 14 14 14 14 14 15 14 14 13 13 13 13 12 12 11 10 9 9 8 7 6 5 4 3 2 1 1 0 1 1 1 2 2 3 3 4 4 4 5 5 6 6 6 5 6 6 6 6 5 5 6 6 6 6 6 5 5 5 4 5 5 5 5 5 5 5 5 5 5 5 4 3 3 2 1
13 13 13 13 13 13 13 13 13 14 14 14 14 14 14 14 13 13 13 13 12 12 12 11 11 10 9 8 7 6 5 4 3 2 1 0 0 1 1 2 2 3 3 3 4 4 5 5 5 6 6 6 6 6 6 6 6 6 6 6 6 6 7 6 6 6 6 5 5 5 5 5 4 5 5 5 4 5 5 4 4 3 3 2 2
13 13 13 13 13 13 13 13 13 13 13 13 13 13 13 13 13 13 12 12 12 11 11 10 10 9 8 7 6 5 4 3 2 1 0 0 1 2 2 2 3 3 4 4 5 5 5 6 6 7 7 7 7 6 6 6 7 7 7 7 7 7 7 7 7 6 6 6 6 6 5 5 4 4 4 4 4 4 4 4 3 3 3 2 2
12 12 13 13 13 13 13 13 13 13 13 13 13 13 13 12 12 12 12 11 11 10 10 9 8 8 7 6 5 4 3 2 1 1 1 1 2 2 2 3 3 4 4 5 5 6 6 6 7 7 7 7 7 7 7 7 7 7 7 7 7 7 7 7 7 7 7 6 6 6 5 5 4 4 4 3 3 3 4 3 3 3 3 2 3
12 12 13 13 13 13 13 13 13 13 13 13 12 12 12 12 12 11 11 11 10 10 9 9 8 7 6 5 4 3 2 1 1 1 1 1 2 2 3 3 4 4 5 5 5 6 6 6 7 7 8 8 8 8 8 7 7 8 7 8 8 7 7 7 8 8 7 6 6 6 5 5 4 4 3 3 3 3 3 3 3 3 3 2 3
12 12 12 12 13 13 13 13 13 12 12 12 12 12 11 11 11 11 10 10 10 9 8 8 7 6 5 4 3 3 2 1 1 1 1 1 2 3 3 3 4 4 5 5 5 6 6 7 7 8 8 8 8 8 8 8 8 8 8 8 8 8 8 8 8 8 7 6 6 5 5 5 4 4 3 3 2 2 2 3 3 3 3 2 3
12 12 12 12 13 13 13 13 12 12 12 12 12 11 11 10 10 10 9 9 9 8 7 7 6 5 5 4 3 2 2 1 1 1 1 2 2 3 3 3 4 4 5 5 6 6 7 7 8 8 8 8 8 9 8 8 9 9 9 8 8 8 9 9 9 9 8 7 6 5 5 5 4 4 3 3 2 1 1 2 3 3 2 2 3
12 12 12 12 13 13 12 12 12 12 11 11 11 11 10 10 9 9 9 8 8 7 7 6 6 5 4 3 3 2 1 1 1 1 1 2 2 3 3 4 4 4 5 5 6 6 7 7 8 8 8 9 9 9 9 9 9 9 9 9 9 9 9 9 9 9 9 7 6 5 5 5 4 4 3 3 2 1 1 1 2 2 2 2 3
11 11 11 12 12 12 12 12 11 11 11 11 10 10 9 9 9 8 8 8 7 7 6 6 5 4 4 3 2 2 1 1 1 1 1 2 2 3 3 4 4 5 5 6 6 7 7 8 8 8 9 9 9 9 9 9 9 9 9 9 10 10 10 10 10 10 10 8 7 6 5 5 5 4 4 3 3 2 1 1 1 2 2 2 2
11 11 11 12 12 12 11 11 11 10 10 10 9 9 9 9 8 8 8 7 7 6 6 5 5 4 3 2 2 1 1 0 1 1 2 2 2 3 3 4 5 5 6 6 7 7 8 8 8 9 9 10 10 10 10 10 10 10 9 9 10 10 10 10 10 10 10 9 8 7 6 5 5 5 5 4 3 2 1 0 1 1 1 2 2
10 11 11 11 11 11 11 10 10 10 9 9 9 9 8 8 8 8 7 7 7 6 5 5 4 3 3 2 2 1 1 1 1 1 2 2 3 3 4 4 5 6 6 7 7 8 8 9 9 10 10 10 11 11 11 10 10 10 10 10 10 10 10 10 10 11 11 9 8 8 7 6 5 5 5 5 4 3 2 1 1 1 1 1 2
10 11 11 10 10 11 10 10 10 9 9 9 8 8 8 8 8 7 7 6 6 6 5 4 4 3 3 2 2 1 1 1 1 2 2 2 3 3 4 5 5 6 6 7 7 8 9 9 10 11 11 11 11 11 11 11 10 10 10 10 9 9 10 10 10 11 10 9 9 9 8 7 6 6 6 6 5 4 4 2 2 1 1 2 3
10 11 10 10 10 10 10 9 9 9 9 8 8 8 7 7 7 7 7 6 6 5 5 4 4 3 3 2 1 1 0 1 1 2 2 3 3 4 4 5 5 6 7 7 8 9 9 10 11 12 12 12 12 12 12 11 11 11 10 10 10 9 9 9 10 11 10 9 9 9 9 8 7 7 7 7 6 5 5 3 2 2 2 3 3
10 11 10 10 10 9 9 9 9 8 8 8 8 8 7 7 7 7 6 6 6 5 5 4 4 3 2 2 1 1 1 1 1 2 2 3 3 4 4 5 6 6 7 8 9 10 10 11 12 12 12 13 13 13 12 12 11 11 11 10 9 9 9 9 9 10 10 10 10 9 9 10 9 8 8 8 7 6 5 4 3 3 3 4 4
10 10 10 10 9 9 9 9 8 8 8 8 8 7 7 7 7 7 6 6 6 5 5 4 4 3 2 2 1 1 1 1 2 2 3 3 4 4 5 6 6 7 8 9 10 11 11 12 12 13 13 13 14 13 13 12 11 11 11 10 10 9 9 9 9 9 9 10 10 10 9 10 10 9 9 9 8 7 6 5 5 4 4 5 5
10 10 10 10 9 9 9 8 8 8 8 8 7 7 7 7 7 7 6 6 6 5 5 4 4 3 2 2 1 1 1 2 2 2 3 3 4 5 6 7 7 8 9 10 11 12 12 13 13 13 14 14 14 14 13 13 12 11 11 10 10 9 9 9 8 8 8 9 9 10 10 10 11 11 10 9 9 8 7 6 6 5 5 6 6
10 10 10 10 10 9 9 8 8 8 8 7 7 7 7 7 7 6 6 6 6 5 5 4 4 3 3 2 1 1 1 2 2 3 3 4 5 6 7 7 8 9 10 11 12 13 14 14 15 15 15 14 15 14 13 13 12 11 11 10 9 9 9 8 8 8 8 8 9 10 10 10 12 12 11 10 10 9 8 7 7 6 6 7 8
10 10 10 10 9 9 9 8 8 8 8 7 7 7 7 7 7 6 6 6 6 5 5 4 4 3 3 2 1 1 2 2 2 3 4 4 5 6 7 8 9 10 11 12 13 13 14 15 16 16 16 16 15 14 12 12 12 12 11 10 10 9 8 8 7 8 8 8 9 9 10 11 12 13 12 11 11 10 10 8 8 7 7 8 9
10 10 9 10 9 9 9 8 8 8 8 7 7 7 7 7 7 6 6 6 6 5 5 4 4 3 3 2 2 2 2 2 3 4 5 5 6 7 8 9 10 11 12 13 13 14 15 16 16 16 17 16 15 14 12 12 12 12 11 10 10 10 8 8 7 7 8 8 9 9 10 11 12 14 13 12 12 11 11 10 9 8 8 9 9
10 10 9 9 9 9 9 8 8 8 8 7 7 7 7 7 7 6 6 6 6 5 5 5 4 4 3 3 3 3 3 3 4 4 5 6 7 8 9 10 11 11 12 13 14 14 15 15 16 17 17 16 15 14 13 12 12 11 11 10 10 10 9 8 8 7 8 8 9 9 10 11 13 14 14 13 13 13 12 11 10 9 9 9 10
10 9 9 9 9 9 9 8 8 8 8 7 7 7 7 7 7 6 6 6 6 5 5 5 4 4 4 4 4 4 4 4 4 5 6 6 7 8 9 10 11 12 12 13 14 15 15 16 16 17 17 16 15 14 13 13 12 11 11 10 9 10 9 8 8 8 8 8 9 9 10 11 13 14 15 14 14 14 13 12 11 11 10 10 11
9 9 9 9 9 9 9 8 8 9 8 8 7 7 7 7 7 7 6 6 6 6 5 5 5 5 5 5 5 5 5 5 5 6 6 7 8 9 10 11 12 12 13 14 14 15 16 16 17 17 17 16 15 14 14 13 12 11 11 10 10 10 10 9 9 9 9 9 9 9 10 11 13 14 15 15 15 15 15 14 13 12 12 12 11
9 9 9 9 9 9 9 9 8 8 8 8 7 7 7 7 7 7 7 7 6 6 6 6 5 5 6 5 5 5 5 6 6 6 7 8 8 9 10 11 12 12 13 14 15 15 16 16 17 17 17 15 14 14 13 13 12 11 11 10 10 10 10 10 10 10 10 9 9 9 10 11 13 14 15 16 16 17 17 15 14 13 13 13 13
9 9 9 9 9 10 9 9 9 8 8 8 8 7 7 7 7 7 7 7 7 6 6 6 6 6 6 6 6 6 6 6 7 7 8 8 9 10 11 12 12 13 14 14 15 15 16 17 17 17 16 15 14 14 13 12 12 11 11 10 10 10 10 11 11 11 10 10 10 10 11 11 13 14 15 16 17 18 18 17 16 15 14 14 14
9 9 9 9 9 9 10 9 9 8 8 8 8 8 7 7 7 7 7 7 7 7 7 7 7 7 7 7 7 7 7 7 7 8 9 9 10 11 11 12 13 13 14 15 15 16 17 17 18 17 16 15 14 13 13 12 11 11 11 11 10 10 11 11 11 11 11 10 10 10 11 12 13 14 15 16 17 18 18 18 17 16 15 15 15
8 8 8 8 9 9 9 9 9 8 8 8 8 8 8 7 7 7 7 8 8 7 7 7 7 7 7 7 7 8 8 8 9 9 10 10 11 12 12 13 13 14 15 15 16 16 17 18 18 17 16 14 14 13 12 12 11 11 12 11 11 11 11 11 11 10 11 11 11 11 11 12 13 14 15 16 17 18 18 19 19 17 16 16 16
8 8 8 8 9 9 9 9 9 9 8 8 8 8 8 8 8 8 8 8 8 8 8 8 8 8 8 8 8 8 9 9 10 10 11 11 12 13 13 13 14 14 15 16 17 17 17 18 18 17 16 14 13 13 12 12 12 12 12 12 12 11 11 11 11 11 11 11 11 11 11 12 13 14 15 16 17 17 18 19 20 18 17 17 17
8 8 8 8 8 9 9 9 9 9 9 9 9 8 8 8 8 8 8 9 9 9 9 9 9 9 9 9 9 10 10 10 11 11 12 12 13 14 14 14 15 15 16 17 18 17 17 17 17 17 16 14 13 12 12 12 12 12 12 13 12 12 12 12 12 11 11 12 12 12 12 12 13 14 15 16 17 17 18 19 20 20 18 18 18
8 8 8 8 8 8 9 9 9 9 9 9 9 9 9 8 8 9 9 9 10 10 10 10 10 10 10 10 11 11 11 11 12 12 13 14 14 15 15 15 15 16 16 17 18 17 17 17 17 16 15 14 13 12 12 12 12 13 13 13 13 13 13 13 12 12 12 13 13 13 13 13 13 13 15 16 17 17 18 19 20 20 20 19 19
9 8 8 8 8 8 8 8 9 9 9 9 10 9 9 9 9 9 10 10 10 11 11 11 11 11 12 12 12 12 12 12 13 13 14 14 15 16 16 16 16 16 17 18 18 18 17 17 17 16 15 13 12 12 12 13 13 14 14 14 14 13 13 13 13 13 13 13 13 13 13 14 14 14 14 15 17 17 18 19 20 20 20 20 20
10 9 9 9 8 8 8 8 8 9 9 10 10 10 10 10 10 10 11 11 12 12 12 12 13 13 13 13 14 14 14 14 14 14 15 15 16 17 17 16 17 17 18 18 19 18 17 17 16 16 15 13 12 13 13 13 14 14 14 14 13 13 13 13 13 13 13 13 13 13 13 14 14 14 14 15 16 18 19 19 20 20 20 20 21
10 10 9 9 9 9 9 9 9 9 10 10 10 10 11 11 12 12 12 12 13 13 13 14 14 14 14 14 15 15 15 15 15 15 16 16 17 17 17 16 17 18 18 19 18 17 17 17 16 15 14 13 13 13 13 14 14 14 14 13 13 13 12 12 12 12 11 12 13 13 13 13 14 15 14 14 15 17 18 19 20 21 21 21 21
11 11 11 10 10 10 10 10 10 10 10 11 11 11 12 12 13 13 13 14 14 14 15 15 15 15 15 16 16 16 16 16 16 17 17 17 17 17 16 16 17 18 18 18 18 17 17 16 16 15 14 13 13 13 13 14 14 14 13 12 12 12 12 11 11 10 9 10 11 11 11 12 13 14 15 14 15 16 18 19 20 21 21 21 22
12 12 11 11 11 10 10 10 10 11 11 11 12 12 12 13 13 14 14 15 15 16 16 16 16 17 17 17 17 17 17 18 17 17 17 17 17 17 16 17 17 18 18 18 17 16 16 16 15 14 13 12 12 12 13 13 13 12 12 11 11 11 10 9 9 8 7 7 8 9 10 10 12 13 14 15 15 16 17 18 20 21 21 22 22
13 12 12 12 11 11 11 11 11 11 11 12 12 12 13 13 14 14 15 15 16 16 17 17 17 17 18 18 18 18 18 18 18 18 18 17 17 16 16 16 17 18 18 17 16 16 16 15 14 13 12 11 11 12 13 13 13 12 11 11 10 10 10 8 7 6 5 5 5 7 8 9 11 12 13 14 15 15 16 17 18 20 21 22 23
13 13 13 12 12 12 11 11 11 12 12 12 12 13 13 14 14 15 15 15 16 16 17 17 18 18 18 18 18 19 19 18 18 18 17 17 16 16 16 16 17 17 17 17 16 16 16 15 13 12 11 11 11 11 12 13 12 11 11 10 9 9 9 8 7 6 4 4 4 5 7 9 10 11 12 13 14 15 15 16 17 19 20 21 22
13 13 13 13 13 13 13 13 12 12 13 13 13 13 14 14 15 15 16 16 16 17 17 18 18 19 19 19 19 19 19 19 18 18 16 16 16 16 16 16 16 16 16 17 17 16 16 14 12 11 10 11 11 11 12 12 11 11 11 10 8 8 8 7 7 6 4 4 4 5 6 7 9 10 11 12 13 14 15 16 17 18 19 20 21
13 14 14 14 13 13 13 13 13 13 13 13 14 14 14 15 16 16 17 17 17 18 18 19 19 19 20 20 20 20 20 19 19 18 17 16 15 16 16 16 18 18 18 17 18 17 15 13 11 10 10 10 10 10 11 11 11 11 11 10 8 7 7 7 6 6 5 4 4 4 5 6 8 9 10 11 12 14 15 16 16 17 18 19 20
13 14 14 14 13 13 13 13 13 13 14 14 14 15 15 15 16 17 17 18 18 19 19 20 20 21 21 21 21 21 20 19 19 18 17 16 16 16 17 18 20 20 18 17 17 15 13 10 9 9 10 10 9 9 10 11 11 11 10 9 8 7 6 6 6 6 6 6 5 5 5 6 7 8 9 10 11 13 14 15 16 17 18 18 19
11 13 13 14 13 13 13 13 13 13 13 13 14 15 15 16 17 17 18 19 20 20 21 22 22 22 22 22 22 21 20 20 19 18 18 18 17 17 18 19 19 17 16 15 14 11 10 9 8 8 9 9 9 9 10 10 11 10 10 9 8 7 6 7 8 7 7 6 6 6 6 7 7 8 9 10 11 12 13 14 16 17 17 18 19
9 10 11 12 12 12 12 12 12 12 12 12 13 14 15 16 17 17 18 19 20 21 21 22 22 21 21 22 21 21 20 20 19 19 18 17 17 18 18 17 15 14 13 12 10 9 8 8 8 8 8 8 9 9 9 9 9 9 9 8 8 7 8 9 8 8 7 7 7 7 7 7 7 8 9 10 11 12 13 13 15 16 17 18 19
8 8 8 9 10 10 10 10 10 10 10 11 12 13 13 14 15 16 17 18 19 19 19 20 20 20 20 21 21 21 20 20 19 19 18 17 18 17 16 14 12 11 10 9 8 7 7 7 7 7 8 8 8 9 9 8 8 8 8 8 8 8 9 9 9 9 8 8 8 8 8 8 8 8 9 10 11 12 13 13 14 15 16 17 18
5 5 6 6 7 7 8 8 8 8 9 9 10 10 11 12 13 14 15 16 17 17 17 17 18 18 19 19 20 20 20 21 21 20 19 18 17 15 14 12 10 9 8 7 7 6 6 7 7 7 7 7 8 9 9 9 8 8 8 9 9 9 10 10 10 10 10 9 9 9 9 9 9 9 10 10 11 12 13 13 14 14 15 16 16
3 3 4 4 5 5 5 5 6 6 7 8 8 9 10 11 12 13 13 14 15 15 15 15 15 16 16 15 15 15 17 18 18 18 16 14 13 12 11 9 8 7 7 6 5 6 7 7 7 7 7 7 7 8 9 9 10 10 10 10 10 10 10 10 10 11 11 11 11 10 10 10 11 11 11 11 12 12 13 13 13 14 15 15 16
2 1 2 2 2 3 3 3 4 4 5 6 7 8 9 10 10 11 11 12 12 12 13 13 13 13 12 11 10 11 11 9 9 10 9 8 8 9 8 6 6 5 5 5 5 6 7 7 7 6 7 7 8 8 9 10 10 11 11 11 12 12 12 11 11 11 12 12 12 12 12 12 12 12 12 13 13 13 13 13 13 13 14 15 16
1 1 1 1 1 1 2 2 3 3 4 5 6 7 8 8 8 8 9 9 9 9 9 9 9 9 9 8 8 9 7 5 3 4 5 6 6 6 5 4 3 3 4 5 5 6 6 6 6 6 7 8 9 9 10 11 11 12 12 12 12 13 13 13 13 13 13 13 14 14 14 14 14 14 14 14 14 15 15 15 15 15 15 16 16
1 1 1 0 0 1 1 1 2 3 4 4 5 6 6 7 7 7 7 8 8 7 7 7 6 6 6 6 6 7 5 3 3 3 4 4 4 3 2 2 2 3 4 5 5 5 5 6 6 7 8 9 10 11 11 12 12 13 13 13 13 14 15 14 14 14 14 15 15 15 15 15 16 16 16 16 16 16 16 16 17 17 17 18 18
Wind_Direction
124 124 125 125 125 127 127 127 126 127 127 127 130 132 134 136 138 139 140 140 141 141 141 141 140 141 139 136 135 134 133 132 133 130 127 121 116 111 107 101 95 87 69 36 2 338 329 322 316 313 309 306 302 302 301 295 291 287 281 277 276 276 278 281 288 294 298 301 308 314 317 320 324 331 336 339 339 341 341 336 333 330 321 319 312
126 125 125 126 126 127 128 128 128 128 128 127 130 132 134 136 138 139 139 141 141 142 142 142 141 142 140 137 136 135 133 132 131 128 125 119 115 110 104 96 80 50 16 351 337 328 324 318 314 313 310 308 303 299 298 298 294 289 283 277 272 269 271 275 280 285 290 293 299 305 308 312 317 325 331 335 338 339 340 337 339 337 324 320 313
127 126 126 128 128 128 129 129 128 129 129 129 130 132 134 136 138 138 139 141 142 143 143 144 144 143 142 140 139 138 136 133 133 131 128 122 115 104 87 57 17 359 345 333 326 322 318 314 312 309 308 306 302 296 294 296 293 288 283 275 268 265 267 270 272 277 284 289 293 298 304 309 314 320 325 332 337 337 340 340 342 344 333 329 317
128 127 127 128 129 130 130 130 129 129 130 131 132 133 134 136 137 137 139 141 143 144 145 146 145 145 145 144 143 141 138 137 139 138 133 124 110 85 24 353 344 338 330 324 321 318 314 313 313 310 306 302 300 294 289 290 290 286 279 270 265 264 266 267 268 272 277 284 289 293 300 307 312 317 322 329 336 337 340 343 347 352 348 344 348
130 128 129 130 130 132 132 131 131 131 132 132 133 134 136 137 137 138 139 141 143 144 146 147 146 146 146 145 143 141 141 143 146 144 136 119 89 7 335 326 324 325 323 320 317 314 311 312 314 311 306 302 298 293 287 284 284 284 278 270 268 266 266 266 267 268 269 274 281 288 296 302 308 313 320 328 334 338 341 347 355 359 360 356 352
131 129 131 132 132 134 134 133 133 133 134 134 134 135 137 138 139 140 141 142 143 143 145 147 147 147 146 146 144 143 145 147 148 147 143 123 353 334 325 319 317 319 320 318 314 312 312 313 313 312 309 305 300 295 290 284 281 282 279 274 271 268 266 266 266 265 264 267 273 282 291 295 302 307 315 327 334 341 345 353 4 5 4 4 360
133 131 133 133 133 134 136 135 134 135 136 136 136 136 138 139 140 142 143 144 144 144 145 147 147 148 148 148 148 147 148 148 151 158 186 309 328 329 323 316 314 314 317 317 314 313 314 313 311 310 308 306 302 297 293 287 281 279 279 277 274 270 266 265 264 263 261 263 271 279 286 288 295 301 307 323 334 343 349 359 7 6 5 10 9
135 133 134 135 135 135 137 137 136 136 137 137 137 138 138 138 140 142 144 145 146 147 148 148 148 150 152 151 149 148 148 153 165 202 286 313 319 319 316 313 312 312 313 314 315 315 316 315 312 310 308 306 303 298 293 289 282 279 278 277 276 272 266 263 263 261 259 262 270 274 278 282 287 291 295 315 332 343 353 2 7 7 8 13 6
137 135 136 136 137 137 138 139 138 138 138 139 139 140 139 140 141 143 144 146 147 149 149 150 151 152 153 152 151 154 162 177 204 262 296 309 314 313 311 310 310 311 312 312 315 317 317 317 315 313 312 309 306 300 293 289 284 281 279 275 274 271 265 262 260 259 258 261 267 269 271 274 279 280 279 299 323 343 356 1 6 9 13 16 7
138 137 138 137 139 139 140 141 141 141 141 141 142 142 142 142 144 145 146 147 149 150 151 152 153 155 155 158 162 171 182 200 228 272 295 305 310 312 310 311 313 314 316 315 317 319 318 318 319 319 318 315 310 302 295 290 286 283 280 276 273 271 266 261 258 256 256 259 262 263 264 263 270 272 263 278 306 335 356 359 7 13 16 19 11
139 139 138 138 140 141 142 143 144 145 145 145 145 146 146 146 147 148 148 150 151 152 154 155 157 159 162 167 174 180 188 202 236 277 294 302 305 310 313 317 320 321 320 320 321 320 321 323 324 324 323 320 313 306 300 294 289 285 281 277 274 272 266 262 258 254 255 258 258 260 258 252 262 264 250 259 282 311 349 359 9 15 21 23 17
141 140 139 139 141 142 144 145 146 148 148 149 150 151 151 152 152 152 152 153 155 156 159 161 163 165 169 173 175 177 180 197 250 287 301 306 308 313 317 322 324 324 322 323 324 323 325 328 326 323 324 322 316 311 306 299 293 289 284 280 275 272 268 262 259 255 254 256 255 258 256 249 254 251 238 245 258 272 321 356 16 17 21 29 28
145 142 141 141 143 144 145 146 148 149 151 153 153 154 155 156 157 157 157 159 161 163 165 166 168 169 172 173 173 177 181 219 278 303 310 310 311 315 316 320 321 322 322 322 324 325 327 328 325 323 324 321 317 314 310 305 299 294 288 283 278 273 269 262 259 256 252 253 252 253 252 247 247 238 233 236 236 241 264 333 32 29 26 39 44
149 147 145 144 145 146 147 147 149 151 152 154 155 156 158 160 160 161 162 164 166 167 168 168 169 170 171 173 178 188 195 244 293 303 306 307 310 314 315 317 319 322 324 324 324 325 326 326 325 323 322 320 317 315 312 309 305 298 291 285 280 275 270 262 260 256 250 251 250 249 247 244 240 230 231 229 222 221 227 237 69 54 42 52 63
151 152 149 146 148 149 149 150 151 152 153 155 156 157 159 161 163 165 166 167 168 168 169 170 171 173 176 179 184 198 212 260 293 301 305 309 311 315 317 319 322 325 326 326 326 326 326 325 324 322 320 318 316 314 312 310 306 301 296 290 283 277 272 265 262 257 250 251 250 248 244 239 235 229 229 225 216 210 210 206 155 114 91 72 80
153 154 153 150 151 152 152 152 154 154 155 156 157 159 160 162 163 166 168 170 171 170 173 174 173 174 176 180 181 194 231 279 301 313 317 317 320 321 322 324 327 327 327 328 328 329 328 325 323 321 320 318 315 312 310 308 305 303 300 296 289 281 275 267 264 257 250 253 252 247 242 236 233 229 226 221 214 206 204 197 176 162 144 117 106
155 156 155 155 155 156 156 155 157 157 158 160 160 161 162 163 163 165 168 170 172 172 173 172 172 171 170 174 177 198 258 295 311 319 322 323 327 328 327 327 328 328 327 328 329 331 330 327 325 322 320 319 316 312 308 306 305 303 301 299 292 286 280 271 267 260 253 254 250 247 242 233 231 229 223 219 212 205 202 194 182 173 156 141 131
157 158 159 157 158 159 158 157 159 160 161 163 164 164 164 165 165 167 169 171 173 173 172 172 171 171 171 176 184 213 275 307 319 323 326 328 331 332 330 329 328 328 327 327 329 331 331 328 326 324 321 319 317 313 308 304 302 301 299 298 294 289 284 276 271 265 260 256 249 246 242 230 229 227 222 217 210 205 202 194 184 177 164 154 146
161 162 162 160 161 161 160 160 161 164 165 166 168 168 168 169 170 170 171 173 174 175 176 176 176 176 180 186 197 231 290 316 326 331 333 330 332 332 328 327 327 326 325 328 330 329 329 329 327 325 323 320 317 313 308 303 300 299 297 296 294 290 285 278 273 269 266 260 250 245 238 227 227 226 221 217 209 205 203 197 187 179 170 162 155
164 166 166 164 164 164 163 163 164 167 168 169 170 171 173 174 175 175 175 176 178 181 181 182 182 184 188 197 213 251 301 322 333 336 334 332 331 330 328 327 325 324 324 327 329 327 327 329 327 324 323 321 319 315 309 304 300 298 297 294 292 290 288 281 273 271 270 262 252 244 233 224 223 224 220 216 210 205 204 200 191 180 175 170 163
167 169 169 168 168 168 168 167 168 171 172 172 172 174 175 177 179 179 180 182 184 186 187 188 189 193 198 209 231 269 302 321 331 331 332 331 330 330 328 326 325 324 323 325 328 328 329 330 328 326 324 323 321 316 310 306 302 298 295 293 290 289 289 283 273 273 272 261 254 245 233 225 221 221 219 216 212 206 204 201 195 185 179 175 169
169 170 171 171 172 172 173 173 173 175 176 176 177 177 177 179 182 183 183 185 187 188 190 194 196 202 206 218 242 267 293 312 321 325 328 329 327 327 327 325 325 323 324 325 327 329 330 331 329 328 327 326 323 319 315 311 307 302 296 291 288 286 286 285 278 276 272 259 253 244 234 227 221 220 219 215 213 208 206 203 199 191 184 179 175
171 172 173 174 175 176 178 179 180 180 180 181 182 182 182 182 184 185 185 186 188 190 194 200 204 208 213 227 247 266 284 300 310 318 321 322 322 323 324 324 324 323 324 327 327 328 329 330 330 330 329 328 326 325 324 318 314 309 301 292 286 283 283 284 283 277 270 259 254 245 234 228 221 219 218 215 213 209 207 205 201 196 189 184 181
174 174 176 177 178 179 182 184 186 185 184 186 186 187 186 187 187 187 189 190 193 197 202 209 214 219 227 240 254 269 279 291 301 310 313 316 319 319 322 323 324 324 325 327 328 328 328 329 331 331 330 329 328 329 327 322 318 313 306 297 287 282 280 281 280 276 269 261 256 247 236 230 223 220 218 215 213 210 209 207 204 201 195 189 186
178 178 179 181 182 183 184 187 188 187 189 189 188 189 188 189 191 192 195 198 201 206 212 218 223 230 240 251 262 270 278 288 298 306 310 314 318 319 322 323 325 325 325 327 328 328 327 329 332 332 331 329 329 328 327 324 321 316 310 303 293 284 280 279 277 275 270 264 257 248 241 234 227 223 220 216 214 212 210 209 206 204 200 194 191
181 183 183 184 186 187 186 187 188 189 191 191 190 191 192 195 197 199 201 206 211 214 221 228 232 238 246 256 264 271 279 287 296 304 309 313 317 319 322 323 325 325 325 327 328 328 328 329 331 331 331 329 328 327 325 323 321 319 314 308 299 290 285 281 277 275 270 265 259 248 243 237 231 226 221 217 215 213 213 211 208 206 204 199 195
184 187 187 187 188 189 188 186 188 191 192 193 194 195 199 201 204 207 209 213 218 222 230 236 241 245 250 256 262 271 280 287 295 303 309 312 316 319 321 322 323 324 324 327 329 329 329 330 330 330 330 328 327 326 324 323 321 320 317 312 304 296 290 284 278 274 268 264 259 250 244 239 232 227 223 219 215 213 213 213 211 208 206 202 199
187 188 188 189 188 188 189 188 191 194 195 196 199 202 205 207 210 214 217 220 224 229 235 240 246 249 252 257 262 271 280 286 294 302 307 311 314 317 318 320 322 323 324 326 328 329 330 330 330 329 328 327 327 326 324 323 321 320 320 316 308 301 295 287 279 273 266 261 259 252 246 242 234 228 225 222 218 214 213 214 212 211 208 205 203
189 189 189 190 190 189 191 193 195 198 199 201 204 207 209 212 215 219 222 225 228 234 240 244 250 253 255 259 263 270 278 285 292 299 305 309 312 314 316 318 321 323 324 325 326 328 330 330 330 329 327 326 326 326 325 324 323 321 320 317 312 306 300 292 282 274 266 261 260 254 248 243 236 230 226 223 220 217 216 215 213 212 211 208 206
191 192 191 192 193 193 196 198 200 202 204 206 209 212 215 217 220 224 227 230 234 239 244 248 253 256 259 262 265 270 276 285 292 297 302 306 309 311 314 316 319 322 324 325 325 326 328 329 330 328 326 324 324 324 323 323 322 320 319 316 312 308 303 296 286 276 266 261 260 256 250 244 238 231 226 223 222 220 220 218 214 213 212 210 209
196 197 196 197 198 198 201 202 205 208 209 211 214 218 221 225 227 231 233 236 239 243 247 251 255 259 262 264 267 271 276 284 290 295 300 303 306 309 311 313 316 319 322 324 324 323 324 327 328 328 326 323 322 322 321 321 320 319 317 315 312 307 303 298 288 278 268 262 260 256 251 245 238 232 226 224 222 221 221 219 216 215 214 213 212
202 203 202 202 202 203 205 207 210 212 215 216 219 223 226 230 233 236 240 241 244 248 252 255 257 260 263 265 269 272 275 282 288 292 297 301 304 306 308 311 313 316 319 322 323 321 321 324 326 326 325 323 322 320 320 321 320 318 317 315 312 307 302 297 290 280 269 263 259 255 252 245 238 232 226 223 222 221 221 220 218 218 217 216 213
205 207 209 210 208 210 212 214 216 219 222 223 224 228 230 234 237 240 244 246 248 252 256 259 261 262 264 266 269 272 275 280 286 290 295 299 302 304 306 308 310 313 316 319 321 320 320 321 323 324 324 323 321 319 319 320 320 318 316 314 312 307 303 297 290 282 272 264 259 255 251 245 239 232 226 224 222 221 221 221 222 221 220 219 215
211 212 215 218 217 218 220 222 224 227 230 232 234 236 237 239 242 245 247 249 251 254 258 261 263 264 265 267 269 271 275 279 284 289 293 298 301 303 304 306 308 310 313 316 317 317 318 319 321 323 323 321 319 317 318 319 319 318 316 315 312 308 304 298 292 284 275 266 259 255 250 244 238 231 227 226 225 223 221 221 223 222 221 220 218
218 220 222 225 227 228 230 232 232 234 237 239 242 243 244 246 247 250 252 253 255 256 259 263 265 268 269 270 270 272 275 279 283 287 291 296 299 301 302 303 305 308 310 313 314 314 316 317 318 320 320 319 318 317 317 318 318 318 317 316 313 309 305 300 295 287 276 267 258 253 249 245 238 231 228 228 227 225 224 223 223 223 223 222 220
224 226 229 231 233 234 236 239 240 241 243 246 248 249 250 251 253 255 256 257 259 261 263 265 267 269 271 272 273 273 276 279 283 286 291 295 298 299 299 300 303 306 309 312 312 313 314 315 316 317 317 317 317 316 317 318 319 320 319 319 316 313 310 305 300 292 279 267 258 250 247 245 239 231 228 229 228 227 226 225 224 224 224 223 223
227 229 232 233 235 236 239 242 246 246 248 251 252 254 255 256 258 259 260 260 262 264 266 268 269 270 271 271 272 273 275 279 283 286 289 292 295 297 297 299 302 306 308 310 310 311 313 313 313 314 313 312 314 316 319 320 321 322 323 323 321 318 315 312 307 299 284 268 257 246 242 242 237 231 229 230 230 228 228 227 226 225 225 224 225
231 232 233 235 237 240 242 245 248 251 252 254 255 258 260 261 262 262 263 263 265 266 267 269 270 271 271 270 271 273 275 279 283 286 288 290 292 294 295 299 302 304 306 307 307 308 312 312 312 312 311 310 314 318 321 322 323 324 326 326 325 324 322 320 317 309 293 273 257 243 237 237 234 231 231 232 231 231 231 229 227 227 226 225 225
234 235 236 237 239 242 245 247 251 254 255 256 258 260 263 264 265 265 266 266 268 268 269 270 272 272 272 271 271 272 275 278 282 285 287 289 291 293 296 300 302 304 305 305 305 306 310 310 311 311 309 311 315 319 323 324 325 325 327 329 328 329 330 328 328 323 308 286 261 242 235 233 232 232 233 234 233 232 231 229 228 228 228 228 227
236 237 238 239 241 243 245 248 252 255 257 259 260 262 264 265 266 267 267 268 270 271 272 273 273 273 273 272 272 272 274 277 281 284 285 287 290 292 296 301 304 306 307 305 303 304 307 308 309 308 305 309 315 319 324 326 327 326 327 328 329 332 336 335 335 335 322 297 267 246 239 235 234 235 234 234 234 233 232 231 230 229 229 230 230
235 236 239 241 243 244 246 249 252 255 257 260 262 264 265 266 267 268 269 271 272 274 275 275 274 274 273 273 273 273 274 277 280 281 283 286 289 291 295 300 304 307 307 305 302 303 303 303 305 303 302 309 315 319 325 327 328 329 328 327 326 330 337 340 339 340 330 303 273 254 247 241 238 238 236 234 233 233 234 234 232 231 232 233 232
233 235 238 241 244 245 247 249 252 255 258 261 263 266 267 269 269 270 271 273 274 275 275 276 276 275 274 273 274 274 274 276 278 279 280 282 287 292 295 298 302 304 305 302 301 300 299 297 298 299 301 308 315 320 325 329 330 330 327 324 322 322 329 338 339 337 331 312 287 268 260 252 245 242 239 237 236 236 236 236 234 234 235 236 235
236 238 239 241 243 244 246 249 253 256 260 262 264 266 268 270 271 272 274 275 276 276 277 278 277 276 274 273 273 273 273 274 275 275 275 279 285 290 292 296 299 300 301 302 301 299 295 292 292 296 303 310 314 318 323 329 331 329 326 322 321 318 322 332 333 331 328 319 307 293 277 264 256 250 247 246 244 241 239 239 237 237 238 238 238
241 243 243 242 241 243 246 249 253 257 261 264 266 268 270 271 273 274 276 277 277 278 279 279 279 277 274 272 272 271 272 272 272 272 273 277 283 287 291 297 297 296 299 303 304 301 294 291 291 296 305 310 313 314 318 327 331 330 328 324 319 315 317 325 325 323 324 319 313 306 292 276 267 263 260 258 255 250 245 243 241 240 239 239 239
245 246 244 242 242 244 247 250 255 259 262 266 269 271 273 274 275 277 278 278 279 280 280 281 280 278 276 274 272 270 271 270 269 270 272 275 281 286 292 297 297 296 299 303 304 303 299 295 293 297 303 308 312 314 315 322 329 331 330 327 321 315 315 317 316 314 316 314 309 306 300 290 280 273 269 265 263 259 252 248 247 244 243 242 240
248 248 242 241 243 245 249 252 257 260 264 269 273 275 277 279 280 281 281 282 282 283 283 283 283 282 280 278 274 272 269 267 267 269 270 274 280 284 288 291 294 296 297 300 302 302 303 299 294 299 305 308 313 318 319 321 326 328 327 326 322 316 312 311 309 306 307 307 304 301 298 294 288 280 274 269 267 263 258 255 253 248 246 244 241
244 246 242 241 243 247 251 254 257 262 267 273 278 281 284 285 287 286 286 287 287 287 287 286 286 285 284 281 278 275 271 266 264 265 270 274 275 276 281 285 289 292 294 298 302 303 305 304 300 304 309 311 314 320 323 323 323 325 325 324 319 314 311 309 307 302 300 300 299 298 296 292 288 283 278 273 270 268 265 263 260 255 253 251 247
234 240 242 240 242 246 248 252 259 266 271 277 283 290 293 294 295 294 294 294 293 293 292 290 289 289 290 289 286 284 280 272 262 261 269 270 265 268 277 282 284 289 293 297 304 306 309 308 307 309 310 312 316 319 322 322 321 322 323 321 317 313 309 306 305 302 299 295 293 293 293 292 288 283 280 277 274 272 270 269 267 264 261 258 255
222 224 228 230 235 242 246 254 266 274 280 288 295 301 304 305 305 305 303 303 302 301 299 296 294 294 296 297 297 297 295 283 262 256 261 261 262 271 279 282 284 288 293 300 307 309 311 313 312 313 313 314 316 317 318 317 317 318 318 316 313 311 307 303 301 299 297 295 292 289 287 287 286 282 279 279 277 276 273 270 269 268 265 263 261
174 174 175 207 238 250 261 272 281 290 299 307 312 313 315 315 316 315 314 315 315 314 313 311 307 305 303 299 303 306 298 285 274 260 257 267 275 277 281 285 286 293 304 310 312 311 314 318 317 316 317 316 315 314 314 314 313 313 312 311 308 306 306 304 299 297 295 294 293 290 286 284 283 281 278 277 277 277 275 272 270 269 267 266 264
119 133 126 114 288 276 287 305 309 313 318 321 324 325 326 328 329 329 330 332 332 328 331 338 341 338 331 323 325 326 309 279 282 276 266 277 281 274 284 296 297 307 316 316 314 315 317 318 318 317 317 316 315 314 313 311 310 309 308 308 305 303 304 302 298 297 295 294 293 292 291 288 285 281 278 275 275 276 275 274 273 271 269 267 266